weather.gov     
National Weather Service

Terminal Aerodrome Forecast
NWS Homepage
This page is being discontinued on March 12, 2014.
The same data is available at this site. Please update your bookmarks.
Thank you, and we apologize for the inconvenience.
Please send an email to SR-SRH.Webmaster@noaa.gov with any concerns.


Current Version
Previous Version:    01  02  03  04  05  06  07  08  09  10  11  12  13  14  15  16  17  18  19  20  21  22  23  24  25  26  27  28  29  30  
   31  32  33  34  35  36  37  38  39  40  41  42  43  44  45  
[Printable]
308
FTUS42 KFFC 211138
TAFMCN
TAF
KMCN 211138Z 2112/2212 06007KT 1SM BR OVC002
      TEMPO 2112/2115 2SM OVC004
     FM211600 07005KT 4SM BR OVC007
     FM211800 08007KT P6SM OVC012
     FM220400 09005KT 6SM BR OVC007
     FM220900 07008KT 4SM BR OVC004=




308
FTUS42 KFFC 211138
TAFMCN
TAF
KMCN 211138Z 2112/2212 06007KT 1SM BR OVC002
      TEMPO 2112/2115 2SM OVC004
     FM211600 07005KT 4SM BR OVC007
     FM211800 08007KT P6SM OVC012
     FM220400 09005KT 6SM BR OVC007
     FM220900 07008KT 4SM BR OVC004=


U.S. Dept. of Commerce
NOAA National Weather Service
1325 East West Highway
Silver Spring, MD 20910
E-mail: w-nws.webmaster@noaa.gov
Page last modified: May 16, 2007
NATIONAL WEATHER SERVICE: for Safety, for Work, for Fun - FOR LIFE